Flag for Australia Weather past 2 weeks in Ballarat, Victoria, Australia

Now
59 °F

Cool.


Feels Like: 58 °F
Forecast: 54 / 82 °F
Wind: 8 mph from North

Location: Sheoaks Aws

Current Time: Oct 22, 2014 at 6:11:14 AM

Latest Report: Oct 22, 2014 at 4:00 AM


Visibility: N/A

Pressure: 30.09 "Hg

Humidity: 66%

Dew point: 48 °F

Location of BallaratLocation

Historic Weather in Ballarat — Graph

°F

Ballarat temperature yesterday

Maximum temperature yesterday: 77 °F (at 4:00 PM)
Minimum temperature yesterday: 38 °F (at 7:00 AM)
Average temperature yesterday: 59 °F

Past Weeks' High & Low Weather Summary

 TemperatureHumidityPressure
High81 °F (Oct 19, 1:00 PM)100% (Oct 9, 4:00 AM)30.44 "Hg (Oct 9, 4:00 AM)
Low37 °F (Oct 17, 6:00 AM)19% (Oct 19, 1:00 PM)29.70 "Hg (Oct 12, 4:00 PM)
Average55 °F70%30.12 "Hg
* Reported Oct 7 4:00 AM — Oct 22 4:00 AM, Ballarat, Weather by CustomWeather, © 2014

Note: Actual official high and low records may vary slightly from our data, if they occured in-between our weather recording intervals... More about our weather records

Advertising

Ballarat weather history for previous 24 hours

 ConditionsComfort  
Time TempWeatherWind HumidityBarometerVisibility
4:00 AM
Oct 22
59 °FCool.8 mph66%30.09 "HgN/A
3:00 AM58 °FCool.6 mph71%30.12 "HgN/A
1:00 AM59 °FCool.7 mph70%30.16 "HgN/A
12:00 AM56 °FCool.6 mph82%30.18 "HgN/A
10:00 PM
Oct 21
60 °FCool.2 mph77%30.22 "HgN/A
9:00 PM62 °FCool.3 mph71%30.22 "HgN/A
7:00 PM68 °FMild.7 mph58%30.20 "HgN/A
6:00 PM72 °FMild.9 mph50%30.21 "HgN/A
4:00 PM77 °FMild.8 mph41%30.22 "HgN/A
3:00 PM76 °FMild.9 mph42%30.23 "HgN/A
1:00 PM73 °FMild.6 mph46%30.28 "HgN/A
12:00 PM71 °FMild.7 mph50%30.29 "HgN/A
10:00 AM59 °FCool.7 mph64%30.32 "HgN/A
9:00 AM54 °FCool.5 mph76%30.33 "HgN/A
7:00 AM38 °FChilly.6 mph97%30.30 "HgN/A
6:00 AM40 °FChilly.5 mph97%30.29 "HgN/A
Weather by CustomWeather, © 2014

See weather overviewHow to use our weather pages